This demonstration page uses our WeatherBlox Daily Observations layout. Learn more.

Left ArrowRight Arrow

Hourly Observations for November 20, 2016

Temp ( °F °C ) Dew Point ( °F °C ) Humidity (%) Winds ( mph kmh ) Pressure ( in mb ) Visibility ( mi km ) Precip ( " mm )
12:51 am 00:51 Clear 53 11.7 26 -3.3 35 35 ESE 10 17 30.15 1021 10 16.0934 N/A
1:51 am 01:51 Clear 54 12.2 26 -3.3 34 34 ESE 12 19 30.14 1021 10 16.0934 N/A
2:51 am 02:51 Clear 55 12.8 26 -3.3 33 33 SE 12 19 30.13 1020 10 16.0934 N/A
3:51 am 03:51 Clear 53 11.7 25 -3.9 34 34 ESE 9 15 30.14 1021 10 16.0934 N/A
4:51 am 04:51 Clear 52 11.1 26 -3.3 37 37 ESE 10 17 30.14 1021 10 16.0934 N/A
5:51 am 05:51 Clear 50 10 26 -3.3 39 39 SE 10 17 30.14 1021 10 16.0934 N/A
6:51 am 06:51 Clear 53 11.7 27 -2.8 37 37 ESE 14 22 30.14 1021 10 16.0934 N/A
7:51 am 07:51 Sunny 53 11.7 27 -2.8 37 37 E 12 19 30.17 1022 10 16.0934 N/A
8:51 am 08:51 Sunny 57 13.9 26 -3.3 30 30 SE 9 15 30.17 1022 10 16.0934 N/A
9:51 am 09:51 Sunny 60 15.6 28 -2.2 30 30 SE 10 17 30.16 1021 10 16.0934 N/A
10:51 am 10:51 Sunny 63 17.2 28 -2.2 27 27 ESE 12 19 30.13 1020 10 16.0934 N/A
11:51 am 11:51 Sunny 66 18.9 29 -1.7 25 25 ESE 7 11 30.09 1019 10 16.0934 N/A
12:51 pm 12:51 Sunny 68 20 30 -1.1 24 24 E 9 15 30.03 1017 10 16.0934 N/A
1:51 pm 13:51 Sunny 69 20.6 31 -0.6 24 24 E 7 11 29.99 1016 10 16.0934 N/A
2:51 pm 14:51 Sunny 70 21.1 32 undefined 25 25 ESE 3 6 29.96 1015 10 16.0934 N/A
3:51 pm 15:51 Sunny 67 19.4 36 2.2 32 32 NW 5 7 29.95 1014 10 16.0934 N/A
4:51 pm 16:51 Sunny 64 17.8 35 1.7 34 34 NNW 6 9 29.95 1014 10 16.0934 N/A
5:51 pm 17:51 Clear 62 16.7 35 1.7 37 37 NW 5 7 29.95 1014 10 16.0934 N/A
6:51 pm 18:51 Clear 60 15.6 34 1.1 38 38 NNW 6 9 29.93 1014 10 16.0934 N/A
7:51 pm 19:51 Partly Cloudy 59 15 34 1.1 39 39 NNW 8 13 29.95 1014 10 16.0934 N/A
8:51 pm 20:51 Clear 60 15.6 32 undefined 35 35 NW 8 13 29.94 1014 10 16.0934 N/A
9:51 pm 21:51 Partly Cloudy 57 13.9 34 1.1 42 42 NW 7 11 29.95 1014 10 16.0934 N/A
10:51 pm 22:51 Cloudy 57 13.9 34 1.1 42 42 S 8 13 29.98 1015 10 16.0934 N/A
11:51 pm 23:51 Cloudy 57 13.9 36 2.2 45 45 N N/A 29.96 1015 10 16.0934 N/A

Powered by AerisWeather